Weather History for KCAE - March, 2013

Change the Weather History Date:

Wednesday, March 6, 2013

  Actual Average Record
Temperature  
Mean Temperature 48 °F 53 °F  
Max Temperature 56 °F 65 °F 85 °F (1961)
Min Temperature 39 °F 41 °F 18 °F (1960)
Degree Days  
Heating Degree Days 17 12  
Month to date heating degree days 117 78  
Since 1 July heating degree days 1837 2177  
Cooling Degree Days 0 0  
Month to date cooling degree days 0 0  
Year to date cooling degree days 25 4  
Moisture  
Dew Point 24 °F    
Average Humidity 45    
Maximum Humidity 61    
Minimum Humidity 28    
Precipitation  
Precipitation 0.00 in 0.13 in 1.90 in (1983)
Month to date precipitation 0.02 0.78  
Year to date precipitation 6.74 7.97  
Sea Level Pressure  
Sea Level Pressure 29.90 in    
Wind  
Wind Speed 17 mph (WNW)    
Max Wind Speed 32 mph    
Max Gust Speed 39 mph    
Visibility 10 miles    
Events      
T = Trace of Precipitation, MM = Missing Value Source: NWS Daily Summary

Daily Weather History Graph

Daily Weather History Graph

Search for Another Location

Airport or City:

Trip Planner

Search our weather history database for the weather conditions in past years. The results will help you decide how hot, cold, wet, or windy it might be!

Date:

Astronomy

Mar. 06, 2013 Rise Set
Actual Time 6:46 AM EST 6:25 PM EST
Civil Twilight 6:21 AM EST 6:50 PM EST
Nautical Twilight 5:52 AM EST 7:19 PM EST
Astronomical Twilight 5:23 AM EST 7:48 PM EST
Moon 2:42 AM EST 1:16 PM EST
Length of Visible Light 12h 28m
Length of Day
11h 38m
Waning Crescent, 30% of the Moon is Illuminated
Mar 6
Waning Crescent
Mar 11
New
Mar 19
First Quarter
Mar 27
Full
Apr 3
Last Quarter

Hourly Weather History & Observations

Time (EST) Temp. Windchill Dew Point Humidity Pressure Visibility Wind Dir Wind Speed Gust Speed Precip Events Conditions
12:56 AM 48.9 °F - 35.1 °F 59% 29.72 in 10.0 mi West 20.7 mph 28.8 mph N/A   Partly Cloudy
1:56 AM 46.0 °F 38.0 °F 28.9 °F 51% 29.75 in 10.0 mi West 21.9 mph 38.0 mph N/A   Partly Cloudy
2:56 AM 43.0 °F 35.1 °F 27.0 °F 53% 29.75 in 10.0 mi West 17.3 mph 25.3 mph N/A   Partly Cloudy
3:56 AM 43.0 °F 34.0 °F 27.0 °F 53% 29.75 in 10.0 mi WSW 21.9 mph 29.9 mph N/A   Partly Cloudy
4:56 AM 42.1 °F 33.1 °F 24.1 °F 49% 29.77 in 10.0 mi West 20.7 mph 28.8 mph N/A   Clear
5:56 AM 41.0 °F 32.5 °F 24.1 °F 51% 29.79 in 10.0 mi West 17.3 mph - N/A   Clear
6:56 AM 39.9 °F 30.2 °F 21.0 °F 47% 29.82 in 10.0 mi WNW 20.7 mph 39.1 mph N/A   Scattered Clouds
7:56 AM 39.9 °F 30.5 °F 19.9 °F 45% 29.85 in 10.0 mi West 19.6 mph 29.9 mph N/A   Clear
8:56 AM 43.0 °F 33.3 °F 19.0 °F 38% 29.87 in 10.0 mi West 25.3 mph 32.2 mph N/A   Partly Cloudy
9:56 AM 44.1 °F 36.2 °F 19.9 °F 38% 29.89 in 10.0 mi WNW 18.4 mph 29.9 mph N/A   Scattered Clouds
10:56 AM 46.9 °F - 19.9 °F 34% 29.91 in 10.0 mi WNW 23.0 mph 31.1 mph N/A   Scattered Clouds
11:56 AM 48.9 °F - 21.0 °F 33% 29.91 in 10.0 mi West 24.2 mph 29.9 mph N/A   Mostly Cloudy
12:56 PM 50.0 °F - 21.0 °F 32% 29.90 in 10.0 mi West 23.0 mph 35.7 mph N/A   Scattered Clouds
1:56 PM 53.1 °F - 21.9 °F 30% 29.88 in 10.0 mi WNW 16.1 mph 28.8 mph N/A   Scattered Clouds
2:56 PM 54.0 °F - 21.9 °F 29% 29.88 in 10.0 mi NW 19.6 mph 27.6 mph N/A   Scattered Clouds
3:56 PM 55.9 °F - 24.1 °F 29% 29.90 in 10.0 mi West 21.9 mph 31.1 mph N/A   Scattered Clouds
4:56 PM 53.1 °F - 24.1 °F 32% 29.93 in 10.0 mi WNW 19.6 mph 28.8 mph N/A   Scattered Clouds
5:56 PM 51.1 °F - 24.1 °F 35% 29.99 in 10.0 mi NNW 16.1 mph 31.1 mph N/A   Partly Cloudy
6:56 PM 48.0 °F - 24.1 °F 39% 30.03 in 10.0 mi NW 9.2 mph - N/A   Clear
7:56 PM 46.0 °F 41.4 °F 25.0 °F 44% 30.06 in 10.0 mi NW 9.2 mph - N/A   Clear
8:56 PM 45.0 °F 38.9 °F 26.1 °F 48% 30.06 in 10.0 mi NW 12.7 mph - N/A   Clear
9:56 PM 43.0 °F 38.8 °F 26.1 °F 51% 30.08 in 10.0 mi NW 6.9 mph - N/A   Clear
10:56 PM 42.1 °F 37.1 °F 25.0 °F 51% 30.11 in 10.0 mi NNW 8.1 mph - N/A   Clear
11:56 PM 39.9 °F 36.7 °F 25.0 °F 55% 30.14 in 10.0 mi NNW 4.6 mph - N/A   Clear